map of LPMT home
LPMT - Airport
Location
City:  Montijo, Lisboa, Portugal
Name:Montijo AB
Old (Alt.):Air Base Nr 6
ICAO:LPMT

Details
Type:Airport (Aerodrome, Airfield)
Use:Military, International (customs port of entry)
Latitude:3842'14"N (38.703861)
Longitude:902'09"W (-9.035915)
Datum:WGS 1984
Elevation:46 ft (14 m)
Variation:2.05W (WMM2015v2 magnetic declination)
0.16 annual change
Runways:2
Longest:8005 × 148 ft (2440 × 45 m), paved

Time
Time Zone:UTC+0 (DST+1)
Local Time:

Weather
METAR:LPMT 041400Z 01004KT 340V040 CAVOK 13/03 Q1030
TAF:LPMT 041112Z 0412/0512 04005KT CAVOK PROB40
TEMPO 0415/0421 34007KT

Related Locations
Nearby:
Farthest:NPL: 12268 mi / 19743 km
New Plymouth, TKI, NZ

Find:

   beyond  
but within

Other Information
Maps:
NOTAMs:
Links:
Sources:

  
  • flag of Portugal
  

Airport Diagram

Airport diagram for LPMT

Larger airport diagram (OBSOLETE) from NGA

Sectional Chart

Flight Planning
at skyvector.com

Satellite Image

Google Maps Satellite view

 

Copyright © 2004-2019 Karl L. Swartz. All rights reserved.
The Great Circle Mapper name and logo are trademarks of the Great Circle Mapper.
All other trademarks mentioned herein belong to their respective owners.
Please see credits for attibutions and further copyright information.

  Follow gcmap on Facebook Follow gcmap on Twitter GCmap on LinkedIn

hCard Microformat

Geo Microformat